User: anonymous   Login
Location: Unspecified
(50.7693°N, 0.0000°E)
Time: 13:33:41
(UTC+00:00)
Language:

Vanguard 1 - Orbit

View from above orbital plane
View from above orbital plane
View from above satellite
View from above satellite

Ground track
Ground track

The orbit data is extracted from the following two-line orbital elements,

1     5U 58002B   20295.02559934 +.00000020 +00000-0 +85312-5 0  9991
2     5 034.2479 201.4208 1846103 197.4754 155.2971 10.84869284218891
Epoch (UTC): 21 October 2020 00:36:51
Eccentricity: 0.1846103
inclination: 34.2479°
perigee height: 650 km
apogee height: 3832 km
right ascension of ascending node: 201.4208°
argument of perigee: 197.4754°
revolutions per day: 10.84869284
mean anomaly at epoch: 155.2971°
orbit number at epoch: 21889

The dashed part of the orbit path shows where the satellite is in the earth's shadow,  

DLR